FW3227 Weather Reports


Display with metric or nautical units.
time (UTC)temp
F
wind
direction
speed
MPH
gust
MPH
rain 1hr
in
rain 24hr
in
rain mn
in
humidity
%
barometer
mb
20260506051046 31 150 0.0 0.0 0.00 0.36 0.34 92 1015.0
20260506050546 31 150 0.0 0.0 0.00 0.36 0.34 92 1015.0
20260506045045 31 150 0.0 0.0 0.00 0.42 0.34 92 1014.9
20260506044550 31 150 0.0 0.0 0.01 0.42 0.34 92 1014.9
20260506044047 31 150 0.0 0.0 0.01 0.42 0.34 92 1014.8
20260506043543 31 150 0.0 0.0 0.01 0.42 0.34 92 1014.8
20260506043043 31 150 0.0 0.0 0.01 0.42 0.34 92 1014.8
20260506042544 31 150 0.0 0.0 0.01 0.42 0.34 92 1014.8
20260506042042 31 150 0.0 0.0 0.01 0.42 0.34 92 1014.8
20260506041548 31 150 0.0 0.0 0.01 0.42 0.34 92 1014.8
20260506041042 31 150 0.0 0.0 0.01 0.42 0.34 92 1014.8
20260506040541 31 150 0.0 0.0 0.01 0.42 0.34 92 1014.7
20260506040055 31 150 0.0 0.0 0.01 0.42 0.34 92 1014.5
20260506035539 31 150 0.0 0.0 0.01 0.43 0.34 92 1014.5
20260506035039 31 150 0.0 0.0 0.01 0.43 0.34 92 1014.4
20260506034538 32 150 0.0 0.0 0.00 0.42 0.33 92 1014.2
20260506034037 32 150 0.0 0.0 0.00 0.42 0.33 92 1014.0
20260506033536 32 150 0.0 0.0 0.00 0.42 0.33 92 1013.9
20260506033036 32 150 0.0 0.0 0.00 0.42 0.33 92 1014.0
20260506032536 32 150 0.0 0.0 0.00 0.42 0.33 92 1013.8
20260506032036 32 150 0.0 0.0 0.00 0.42 0.33 92 1013.7
20260506031550 32 150 0.0 0.0 0.00 0.42 0.33 92 1013.5
20260506031033 32 150 0.0 0.0 0.00 0.42 0.33 92 1013.4
20260506030532 32 150 0.0 0.0 0.00 0.42 0.33 92 1013.3
20260506030030 32 150 0.0 0.0 0.00 0.42 0.33 92 1013.2
20260506025529 32 150 0.0 0.0 0.00 0.42 0.33 92 1013.2
20260506025028 32 150 0.0 0.0 0.00 0.42 0.33 92 1013.1
20260506024529 32 150 0.0 0.0 0.00 0.42 0.33 92 1012.9
20260506024027 32 150 0.0 0.0 0.00 0.42 0.33 92 1012.6
20260506023526 32 150 0.0 0.0 0.00 0.42 0.33 92 1012.5
20260506023025 32 150 0.0 0.0 0.00 0.42 0.33 92 1012.2
20260506022524 32 150 0.0 0.0 0.00 0.42 0.33 92 1012.2
20260506022023 32 150 0.0 0.0 0.00 0.42 0.33 92 1012.1
20260506021522 32 150 0.0 0.0 0.00 0.42 0.33 92 1012.0
20260506021022 32 150 0.0 0.0 0.00 0.42 0.33 92 1011.8
20260506020520 32 150 0.0 0.0 0.00 0.42 0.33 91 1011.7
20260506020020 32 150 0.0 0.0 0.00 0.42 0.33 91 1011.5
20260506015520 33 150 0.0 0.0 0.00 0.42 0.33 91 1011.5
20260506015019 33 150 0.0 0.0 0.00 0.42 0.33 92 1011.5
20260506014518 33 150 0.0 0.0 0.00 0.42 0.33 92 1011.3
20260506014017 33 150 0.0 0.0 0.00 0.42 0.33 92 1011.4
20260506013516 33 150 0.0 0.0 0.00 0.42 0.33 92 1011.1
20260506013016 33 150 0.0 0.0 0.00 0.42 0.33 92 1011.1
20260506012515 33 150 0.0 0.0 0.00 0.42 0.33 92 1010.8
20260506012014 33 150 0.0 0.0 0.00 0.42 0.33 92 1010.8
20260506011515 33 150 0.0 0.0 0.00 0.42 0.33 92 1010.9
20260506011016 33 150 0.0 0.0 0.00 0.42 0.33 92 1010.8
20260506010513 33 150 0.0 0.0 0.00 0.42 0.33 92 1010.6
20260506010013 33 150 0.0 0.0 0.00 0.42 0.33 92 1010.5
20260506005512 33 150 0.0 0.0 0.00 0.42 0.33 92 1010.4
20260506005012 33 150 0.0 0.0 0.00 0.42 0.33 91 1010.5
20260506004521 33 150 0.0 0.0 0.00 0.42 0.33 91 1010.4
20260506004013 33 150 0.0 0.0 0.00 0.42 0.33 91 1010.3
20260506003510 33 150 0.0 0.0 0.00 0.42 0.33 91 1010.2
20260506003013 33 150 0.0 0.0 0.00 0.42 0.33 91 1010.1
20260506002508 33 150 0.0 1.0 0.00 0.42 0.33 91 1010.0
20260506002008 33 150 0.0 1.0 0.00 0.42 0.33 91 1010.0
20260506001507 33 150 0.0 0.0 0.00 0.42 0.33 91 1009.9
20260506001008 33 150 0.0 0.0 0.00 0.42 0.33 91 1009.8
20260506000506 33 150 0.0 0.0 0.00 0.42 0.33 91 1009.5
20260506000004 33 150 0.0 0.0 0.00 0.42 0.33 91 1009.3
20260505235504 33 150 0.0 0.0 0.00 0.42 0.33 91 1009.4
20260505235004 33 150 0.0 0.0 0.00 0.42 0.33 91 1009.4
20260505234504 34 150 0.0 0.0 0.01 0.42 0.33 91 1009.4
20260505234003 34 150 0.0 0.0 0.01 0.42 0.33 91 1009.4
20260505233502 34 150 0.0 0.0 0.02 0.42 0.33 91 1009.2
20260505233002 34 150 0.0 0.0 0.02 0.42 0.33 91 1009.1
20260505232505 34 150 0.0 0.0 0.03 0.42 0.33 91 1009.1
20260505232001 34 150 0.0 0.0 0.03 0.42 0.33 91 1009.2
20260505231606 34 150 0.0 0.0 0.04 0.42 0.33 91 1009.2
20260505231103 34 150 0.0 0.0 0.05 0.42 0.33 91 1009.1
20260505230558 34 150 0.0 0.0 0.05 0.42 0.33 91 1008.8
20260505230056 34 150 0.0 0.0 0.06 0.42 0.33 91 1008.5
20260505225555 34 150 0.0 0.0 0.06 0.42 0.33 91 1008.4
20260505225055 34 150 0.0 0.0 0.07 0.42 0.33 91 1008.2
20260505224554 34 150 0.0 0.0 0.07 0.41 0.32 91 1008.0
20260505224053 34 150 0.0 0.0 0.07 0.41 0.32 91 1008.0
20260505223551 34 150 0.0 0.0 0.07 0.40 0.31 91 1007.8
20260505223054 34 150 0.0 0.0 0.07 0.40 0.31 91 1007.9
20260505222551 34 150 0.0 0.0 0.06 0.39 0.30 91 1007.8
20260505222051 34 150 0.0 0.0 0.07 0.39 0.30 91 1007.6
20260505221551 34 150 0.0 0.0 0.07 0.38 0.28 91 1007.5
20260505221051 35 150 0.0 0.0 0.06 0.37 0.28 91 1007.3
20260505220549 35 150 0.0 0.0 0.07 0.37 0.28 91 1007.3
20260505220048 35 150 0.0 0.0 0.06 0.36 0.27 91 1007.2
20260505215549 35 150 0.0 0.0 0.05 0.35 0.26 91 1007.2
20260505215048 35 150 0.0 1.0 0.06 0.35 0.26 91 1007.4
20260505214553 35 150 0.0 1.0 0.06 0.34 0.25 91 1007.4
20260505214049 35 150 0.0 0.0 0.06 0.34 0.25 91 1007.3
20260505213547 35 150 0.0 1.0 0.06 0.33 0.24 91 1007.3
20260505213048 35 150 0.0 1.0 0.07 0.33 0.24 90 1007.2
20260505212547 35 150 0.0 0.0 0.06 0.32 0.23 90 1007.3
20260505212047 35 150 0.0 0.0 0.07 0.32 0.23 90 1007.3
20260505211547 35 150 0.0 0.0 0.06 0.31 0.22 90 1007.4
20260505211051 36 150 0.0 0.0 0.06 0.31 0.22 90 1007.3
20260505210546 36 150 0.0 0.0 0.05 0.30 0.21 90 1007.4
20260505210046 36 150 0.0 0.0 0.06 0.30 0.21 90 1007.5
20260505205546 36 150 0.0 0.0 0.05 0.28 0.20 90 1007.6
20260505205049 36 150 0.0 5.0 0.05 0.28 0.20 90 1007.8
20260505204548 37 150 0.0 5.0 0.05 0.28 0.19 90 1007.6
20260505204045 37 150 0.0 3.0 0.04 0.27 0.18 90 1007.5
20260505203548 37 150 0.0 0.0 0.04 0.27 0.18 90 1007.5
20260505203048 37 150 0.0 0.0 0.04 0.26 0.17 91 1007.7
20260505202549 37 150 0.0 0.0 0.04 0.26 0.17 91 1007.6
20260505202049 37 150 0.0 6.0 0.03 0.25 0.16 90 1007.6
20260505201545 37 150 0.0 6.0 0.04 0.25 0.16 91 1007.7
20260505201043 38 150 0.0 2.0 0.05 0.25 0.16 91 1007.6
20260505200543 37 150 0.0 0.0 0.06 0.25 0.16 91 1007.4
20260505200047 38 150 0.0 3.0 0.05 0.24 0.15 91 1007.4
20260505195542 38 150 0.0 3.0 0.06 0.24 0.15 91 1007.4
20260505195042 37 150 0.0 2.0 0.05 0.23 0.14 91 1007.3
20260505194542 37 150 0.0 2.0 0.05 0.23 0.14 91 1007.3
20260505194041 37 150 0.0 2.0 0.05 0.23 0.14 91 1007.3
20260505193540 37 150 0.0 6.0 0.04 0.22 0.13 91 1007.2
20260505193041 37 150 1.0 6.0 0.04 0.22 0.13 91 1007.2
20260505192541 37 150 0.0 0.0 0.05 0.22 0.13 91 1007.3
20260505192041 36 150 0.0 0.0 0.05 0.22 0.13 91 1007.3
20260505191541 36 150 0.0 0.0 0.04 0.21 0.12 91 1007.3
20260505191040 36 150 0.0 0.0 0.03 0.20 0.11 91 1007.4
20260505190538 37 150 0.0 0.0 0.02 0.19 0.10 91 1007.5
20260505190041 37 150 0.0 0.0 0.02 0.19 0.10 91 1007.5
20260505185538 37 150 0.0 0.0 0.01 0.18 0.09 91 1007.5
20260505185038 37 150 0.0 8.0 0.01 0.18 0.09 91 1007.4
20260505184538 37 150 1.0 8.0 0.01 0.18 0.09 91 1007.3
20260505184038 37 154 0.0 1.0 0.01 0.18 0.09 91 1007.4
20260505183537 37 154 0.0 2.0 0.01 0.18 0.09 91 1007.4
20260505183040 37 154 0.0 6.0 0.01 0.18 0.09 91 1007.5
20260505182537 37 154 1.0 6.0 0.00 0.17 0.08 91 1007.5
20260505182040 37 154 0.0 5.0 0.00 0.17 0.08 91 1007.4
20260505181542 37 154 0.0 4.0 0.00 0.17 0.08 91 1007.4
20260505181037 37 154 0.0 4.0 0.00 0.17 0.08 91 1007.5
20260505180538 37 154 0.0 6.0 0.00 0.17 0.08 91 1007.5
20260505180040 37 154 0.0 6.0 0.00 0.17 0.08 91 1007.5
20260505175534 36 154 0.0 8.0 0.00 0.17 0.08 91 1007.5
20260505175035 37 154 0.0 6.0 0.00 0.17 0.08 91 1007.6
20260505174540 36 154 0.0 6.0 0.00 0.17 0.08 91 1007.5
20260505174034 37 154 0.0 6.0 0.00 0.17 0.08 91 1007.4
20260505173533 37 154 0.0 2.0 0.00 0.17 0.08 92 1007.4
20260505173035 36 154 0.0 6.0 0.00 0.17 0.08 92 1007.4
20260505172532 36 154 2.0 8.0 0.00 0.17 0.08 91 1007.3
20260505172031 36 155 2.0 10.0 0.00 0.17 0.08 91 1007.2
20260505171534 36 157 0.0 10.0 0.00 0.17 0.08 91 1007.1
20260505171034 36 159 3.0 10.0 0.00 0.17 0.08 91 1007.2
20260505170530 36 138 5.0 10.0 0.00 0.17 0.08 91 1007.2
20260505170028 36 138 0.0 9.0 0.00 0.17 0.08 91 1007.2
20260505165528 36 139 3.0 9.0 0.00 0.17 0.08 91 1007.1
20260505165028 36 138 3.0 8.0 0.00 0.17 0.08 91 1007.2
20260505164528 36 138 1.0 8.0 0.00 0.17 0.08 91 1007.3
20260505164028 36 138 1.0 10.0 0.00 0.17 0.08 91 1007.2
20260505163528 36 139 2.0 10.0 0.00 0.17 0.08 91 1007.2
20260505163025 36 139 4.0 10.0 0.00 0.17 0.08 92 1007.1
20260505162524 36 137 0.0 6.0 0.00 0.17 0.08 92 1007.2
20260505162026 36 141 0.0 8.0 0.00 0.17 0.08 92 1007.1
20260505161524 36 137 4.0 8.0 0.00 0.17 0.08 91 1007.0
20260505161024 36 137 2.0 7.0 0.00 0.17 0.08 91 1007.0
20260505160522 36 135 3.0 9.0 0.00 0.17 0.08 91 1006.9
20260505153017 35 134 2.0 9.0 0.01 0.17 0.08 91 1006.8
20260505152515 35 56 2.0 7.0 0.01 0.17 0.08 92 1006.8
20260505152018 35 56 0.0 4.0 0.01 0.17 0.08 91 1006.9
20260505151517 35 56 0.0 4.0 0.01 0.17 0.08 91 1006.8
20260505151013 35 56 0.0 4.0 0.01 0.17 0.08 92 1006.7
20260505150514 35 56 0.0 8.0 0.02 0.17 0.08 91 1006.7
20260505140502 35 56 0.0 3.0 0.01 0.15 0.06 91 1006.5
20260505130108 36 14 0.0 3.0 0.03 0.14 0.05 89 1005.1
20260505124553 37 29 0.0 3.0 0.02 0.13 0.04 89 1004.5
20260505124044 38 346 0.0 4.0 0.03 0.13 0.04 89 1004.3
20260505123543 38 55 0.0 7.0 0.03 0.13 0.04 89 1004.0
20260505123045 38 56 0.0 7.0 0.02 0.12 0.03 89 1003.8
20260505122540 39 356 0.0 3.0 0.02 0.12 0.03 89 1003.8
20260505122039 40 54 0.0 3.0 0.02 0.12 0.03 89 1003.9
20260505121538 40 44 0.0 2.0 0.03 0.12 0.03 89 1003.9
20260505121036 41 56 0.0 3.0 0.03 0.12 0.03 89 1003.7
20260505120535 41 41 0.0 3.0 0.02 0.11 0.02 90 1003.7
20260505120033 41 171 0.0 0.0 0.02 0.11 0.02 90 1003.7
20260505115534 41 171 0.0 0.0 0.02 0.11 0.02 90 1003.7
20260505115036 41 170 0.0 0.0 0.02 0.11 0.02 90 1003.7
20260505114534 41 169 0.0 0.0 0.01 0.10 0.01 90 1003.6
20260505114034 41 168 0.0 0.0 0.01 0.10 0.01 90 1003.5
20260505113535 41 168 0.0 0.0 0.01 0.10 0.01 90 1003.5
20260505113033 41 168 0.0 0.0 0.01 0.10 0.01 90 1003.5
20260505112634 41 168 0.0 0.0 0.01 0.10 0.01 90 1003.4
20260505112033 41 168 0.0 0.0 0.01 0.10 0.01 90 1003.5
20260505111538 41 168 0.0 0.0 0.00 0.09 0.00 89 1003.4
20260505111033 41 168 0.0 0.0 0.00 0.09 0.00 89 1003.4
20260505110532 41 168 0.0 0.0 0.00 0.09 0.00 89 1003.4
20260505102031 42 179 0.0 5.0 0.00 0.09 0.00 88 1002.7
20260505101527 43 179 0.0 5.0 0.00 0.09 0.00 88 1002.6
20260505101025 43 193 0.0 4.0 0.00 0.09 0.00 88 1002.3
20260505100526 43 251 0.0 1.0 0.00 0.09 0.00 88 1002.5
20260505100028 43 259 0.0 1.0 0.00 0.09 0.00 88 1002.5
20260505095521 44 259 0.0 0.0 0.00 0.09 0.00 89 1002.5
20260505095021 44 259 0.0 0.0 0.00 0.09 0.00 89 1002.4
20260505094521 44 256 0.0 0.0 0.00 0.09 0.00 89 1002.5
20260505094021 44 256 0.0 0.0 0.00 0.09 0.00 89 1002.5
20260505093520 44 256 0.0 0.0 0.00 0.09 0.00 88 1002.5
20260505093020 44 256 0.0 0.0 0.00 0.09 0.00 88 1002.6
20260505092522 44 256 0.0 0.0 0.00 0.09 0.00 88 1002.8
20260505092019 44 256 0.0 0.0 0.00 0.09 0.00 88 1002.8
20260505091518 44 256 0.0 0.0 0.00 0.09 0.00 88 1002.7
20260505091021 44 256 0.0 0.0 0.00 0.09 0.00 88 1002.7
20260505090519 45 256 0.0 0.0 0.00 0.09 0.00 88 1002.7
20260505090017 45 256 0.0 0.0 0.00 0.09 0.00 88 1002.5
20260505085516 45 256 0.0 0.0 0.00 0.09 0.00 88 1002.5
20260505085017 45 256 0.0 0.0 0.00 0.09 0.00 88 1002.5
20260505084519 45 256 0.0 0.0 0.00 0.09 0.00 88 1002.7
20260505084016 45 256 0.0 0.0 0.00 0.09 0.00 88 1002.7
20260505083515 45 256 0.0 0.0 0.00 0.09 0.00 87 1002.6
20260505083016 45 256 0.0 0.0 0.00 0.09 0.00 87 1002.7
20260505082513 45 256 0.0 0.0 0.00 0.09 0.00 87 1002.8
20260505082015 45 256 0.0 0.0 0.00 0.09 0.00 87 1002.9
20260505081512 45 256 0.0 0.0 0.00 0.09 0.00 87 1002.9
20260505081012 45 256 0.0 1.0 0.00 0.09 0.00 87 1002.9
20260505080514 45 257 0.0 0.0 0.00 0.09 0.00 88 1003.1
20260505080012 45 258 0.0 0.0 0.00 0.09 0.00 88 1003.0
20260505075509 45 257 0.0 0.0 0.00 0.09 0.00 89 1003.2
20260505075012 45 258 0.0 0.0 0.00 0.09 0.00 89 1003.3
20260505074509 45 257 0.0 0.0 0.00 0.09 0.00 89 1003.3
20260505074008 45 258 0.0 0.0 0.00 0.09 0.00 88 1003.3
20260505073509 45 258 0.0 0.0 0.00 0.09 0.00 88 1003.5
20260505073010 46 257 0.0 0.0 0.00 0.09 0.00 88 1003.4
20260505072508 46 258 0.0 0.0 0.00 0.09 0.00 88 1003.4
20260505072006 46 258 0.0 0.0 0.00 0.09 0.00 88 1003.3
20260505071515 46 257 0.0 0.0 0.00 0.09 0.00 88 1003.3
20260505071006 46 258 0.0 0.0 0.00 0.09 0.00 88 1003.5
20260505070505 46 258 0.0 0.0 0.00 0.09 0.00 88 1003.7
20260505070004 46 258 0.0 0.0 0.00 0.09 0.00 88 1003.6
20260505065503 46 258 0.0 0.0 0.00 0.09 0.00 88 1003.6
20260505065003 46 257 0.0 0.0 0.00 0.09 0.00 88 1003.7
20260505064503 46 258 0.0 0.0 0.00 0.09 0.00 87 1003.7
20260505064002 46 257 0.0 0.0 0.00 0.09 0.00 87 1003.7
20260505063502 46 257 0.0 0.0 0.00 0.09 0.00 87 1003.7
20260505063004 46 258 0.0 0.0 0.01 0.09 0.00 87 1003.7
20260505062502 46 258 0.0 0.0 0.01 0.09 0.00 87 1003.6
20260505062001 46 258 0.0 0.0 0.01 0.09 0.00 87 1003.5
20260505061603 46 258 0.0 0.0 0.02 0.09 0.00 87 1003.6
20260505061059 46 257 0.0 0.0 0.02 0.09 0.00 87 1003.6
20260505060559 46 257 0.0 0.0 0.02 0.09 0.00 87 1003.6
20260505060058 46 257 0.0 0.0 0.02 0.09 0.00 87 1003.8
20260505055557 46 258 0.0 0.0 0.03 0.09 0.09 87 1003.7
20260505055059 46 258 0.0 0.0 0.03 0.09 0.09 86 1003.6
20260505054559 46 258 0.0 0.0 0.03 0.09 0.09 86 1003.6
20260505054059 46 257 0.0 0.0 0.03 0.09 0.09 86 1003.5
20260505053556 46 258 0.0 0.0 0.04 0.09 0.09 85 1003.6
20260505053104 47 257 0.0 0.0 0.04 0.08 0.08 85 1003.7